Time,TemperatureF,DewpointF,PressureIn,WindDirection,WindDirectionDegrees,WindSpeedMPH,WindSpeedGustMPH,Humidity,HourlyPrecipIn,Conditions,Clouds,dailyrainin,SoftwareType,DateUTC
2013-04-09 00:02:00,51.6,33.6,29.42,WSW,245,20.0,23.0,50,0.00,,---,0.00,VWS V14.00,2013-04-09 07:02:00,
2013-04-09 00:07:00,49.8,36.5,29.42,WSW,246,21.0,26.0,60,0.00,,---,0.00,VWS V14.00,2013-04-09 07:07:00,
2013-04-09 00:12:00,47.8,37.8,29.43,West,279,19.0,26.0,68,0.00,,---,0.00,VWS V14.00,2013-04-09 07:12:00,
2013-04-09 00:17:00,46.2,38.0,29.43,WSW,252,13.0,26.0,73,0.00,,---,0.00,VWS V14.00,2013-04-09 07:17:00,
2013-04-09 00:22:00,44.7,38.9,29.44,WSW,240,7.0,26.0,80,0.00,,---,0.00,VWS V14.00,2013-04-09 07:22:00,
2013-04-09 00:27:00,44.1,39.3,29.44,WSW,246,5.0,26.0,83,0.00,,---,0.00,VWS V14.00,2013-04-09 07:27:00,
2013-04-09 00:32:00,43.8,39.6,29.44,WSW,258,4.0,14.0,85,0.00,,---,0.01,VWS V14.00,2013-04-09 07:32:00,
2013-04-09 00:37:00,42.6,37.8,29.45,WSW,258,13.0,19.0,83,0.00,,---,0.01,VWS V14.00,2013-04-09 07:37:00,
2013-04-09 00:42:00,41.4,37.5,29.45,West,265,7.0,19.0,86,0.00,,---,0.01,VWS V14.00,2013-04-09 07:42:00,
2013-04-09 00:47:00,41.0,38.9,29.45,West,263,7.0,19.0,92,0.00,,---,0.01,VWS V14.00,2013-04-09 07:47:00,
2013-04-09 00:52:00,40.8,37.5,29.45,WSW,241,4.0,19.0,88,0.00,,---,0.01,VWS V14.00,2013-04-09 07:52:00,
2013-04-09 00:57:00,40.7,37.7,29.45,SW,236,0.0,19.0,89,0.00,,---,0.01,VWS V14.00,2013-04-09 07:57:00,
2013-04-09 01:02:00,40.7,37.7,29.45,SW,219,0.0,0.0,89,0.00,,---,0.01,VWS V14.00,2013-04-09 08:02:00,
2013-04-09 01:07:00,40.7,37.4,29.45,SE,130,0.0,4.0,88,0.00,,---,0.01,VWS V14.00,2013-04-09 08:07:00,
2013-04-09 01:12:00,41.2,37.6,29.45,South,173,1.0,14.0,87,0.00,,---,0.01,VWS V14.00,2013-04-09 08:12:00,
2013-04-09 01:17:00,41.8,37.6,29.45,SSW,198,0.0,14.0,85,0.00,,---,0.01,VWS V14.00,2013-04-09 08:17:00,
2013-04-09 01:22:00,41.7,37.5,29.44,SSW,213,0.0,14.0,85,0.00,,---,0.01,VWS V14.00,2013-04-09 08:22:00,
2013-04-09 01:27:00,41.5,37.0,29.44,SSW,197,0.0,14.0,84,0.00,,---,0.01,VWS V14.00,2013-04-09 08:27:00,
2013-04-09 01:32:00,41.6,36.5,29.44,SSW,211,10.0,12.0,82,0.00,,---,0.01,VWS V14.00,2013-04-09 08:32:00,
2013-04-09 01:37:00,41.7,36.9,29.45,WNW,289,9.0,15.0,83,0.00,,---,0.01,VWS V14.00,2013-04-09 08:37:00,
2013-04-09 01:42:00,40.4,36.5,29.45,WNW,283,5.0,15.0,86,0.00,,---,0.01,VWS V14.00,2013-04-09 08:42:00,
2013-04-09 01:47:00,39.7,36.4,29.46,West,260,5.0,15.0,88,0.00,,---,0.01,VWS V14.00,2013-04-09 08:47:00,
2013-04-09 01:52:00,39.3,36.3,29.46,West,273,5.0,15.0,89,0.00,,---,0.01,VWS V14.00,2013-04-09 08:52:00,
2013-04-09 01:57:00,39.1,36.4,29.46,WNW,294,5.0,15.0,90,0.00,,---,0.01,VWS V14.00,2013-04-09 08:57:00,
2013-04-09 02:02:00,39.2,36.5,29.46,WNW,288,8.0,11.0,90,0.00,,---,0.01,VWS V14.00,2013-04-09 09:02:00,
2013-04-09 02:07:00,39.4,37.0,29.46,WNW,288,5.0,11.0,91,0.00,,---,0.01,VWS V14.00,2013-04-09 09:07:00,
2013-04-09 02:12:00,39.5,37.1,29.47,WNW,285,7.0,11.0,91,0.00,,---,0.01,VWS V14.00,2013-04-09 09:12:00,
2013-04-09 02:17:00,39.6,37.2,29.47,WNW,288,6.0,11.0,91,0.00,,---,0.01,VWS V14.00,2013-04-09 09:17:00,
2013-04-09 02:22:00,39.7,37.6,29.48,NW,316,3.0,11.0,92,0.00,,---,0.01,VWS V14.00,2013-04-09 09:22:00,
2013-04-09 02:27:00,39.9,37.8,29.48,NW,313,6.0,11.0,92,0.00,,---,0.01,VWS V14.00,2013-04-09 09:27:00,
2013-04-09 02:32:00,40.0,37.9,29.48,NW,305,6.0,10.0,92,0.00,,---,0.01,VWS V14.00,2013-04-09 09:32:00,
2013-04-09 02:37:00,39.8,37.7,29.48,NW,322,5.0,11.0,92,0.00,,---,0.01,VWS V14.00,2013-04-09 09:37:00,
2013-04-09 02:42:00,39.6,37.5,29.48,NW,306,7.0,11.0,92,0.00,,---,0.01,VWS V14.00,2013-04-09 09:42:00,
2013-04-09 02:47:00,39.7,37.8,29.49,NW,317,5.0,11.0,93,0.00,,---,0.01,VWS V14.00,2013-04-09 09:47:00,
2013-04-09 02:52:00,39.7,37.8,29.49,NW,317,2.0,11.0,93,0.00,,---,0.01,VWS V14.00,2013-04-09 09:52:00,
2013-04-09 02:58:00,39.8,38.0,29.49,NW,317,0.0,11.0,93,0.00,,---,0.01,VWS V14.00,2013-04-09 09:58:00,
2013-04-09 03:03:00,39.8,38.0,29.49,NW,317,3.0,3.0,93,0.00,,---,0.01,VWS V14.00,2013-04-09 10:03:00,
2013-04-09 03:08:00,39.7,37.8,29.49,NW,317,0.0,5.0,93,0.00,,---,0.01,VWS V14.00,2013-04-09 10:08:00,
2013-04-09 03:13:00,39.7,37.8,29.49,NW,317,0.0,5.0,93,0.00,,---,0.01,VWS V14.00,2013-04-09 10:13:00,
2013-04-09 03:18:00,39.7,37.8,29.49,NW,317,0.0,5.0,93,0.00,,---,0.01,VWS V14.00,2013-04-09 10:18:00,
2013-04-09 03:23:00,39.7,37.8,29.49,NW,317,0.0,5.0,93,0.00,,---,0.01,VWS V14.00,2013-04-09 10:23:00,
2013-04-09 03:28:00,39.7,37.8,29.50,NW,317,0.0,5.0,93,0.00,,---,0.01,VWS V14.00,2013-04-09 10:28:00,
2013-04-09 03:33:00,39.5,37.4,29.50,NW,317,0.0,0.0,92,0.00,,---,0.01,VWS V14.00,2013-04-09 10:33:00,
2013-04-09 03:38:00,39.3,37.2,29.50,NW,317,0.0,0.0,92,0.00,,---,0.01,VWS V14.00,2013-04-09 10:38:00,
2013-04-09 03:43:00,39.1,37.0,29.50,NW,317,0.0,0.0,92,0.00,,---,0.01,VWS V14.00,2013-04-09 10:43:00,
2013-04-09 03:48:00,39.1,37.0,29.50,NW,317,0.0,0.0,92,0.00,,---,0.01,VWS V14.00,2013-04-09 10:48:00,
2013-04-09 03:53:00,39.1,37.0,29.50,NW,317,0.0,0.0,92,0.00,,---,0.01,VWS V14.00,2013-04-09 10:53:00,
2013-04-09 03:58:00,39.0,36.9,29.50,NW,317,0.0,0.0,92,0.00,,---,0.01,VWS V14.00,2013-04-09 10:58:00,
2013-04-09 04:03:00,38.9,36.8,29.50,NW,317,0.0,0.0,92,0.00,,---,0.01,VWS V14.00,2013-04-09 11:03:00,
2013-04-09 04:08:00,38.9,36.8,29.50,NW,317,0.0,0.0,92,0.00,,---,0.01,VWS V14.00,2013-04-09 11:08:00,
2013-04-09 04:13:00,38.9,36.8,29.50,NW,317,0.0,0.0,92,0.00,,---,0.01,VWS V14.00,2013-04-09 11:13:00,
2013-04-09 04:18:00,38.9,36.8,29.50,NW,317,0.0,0.0,92,0.00,,---,0.01,VWS V14.00,2013-04-09 11:18:00,
2013-04-09 04:23:00,38.9,36.5,29.51,NW,317,0.0,0.0,91,0.00,,---,0.01,VWS V14.00,2013-04-09 11:23:00,
2013-04-09 04:28:00,39.2,36.8,29.51,NW,315,0.0,0.0,91,0.00,,---,0.01,VWS V14.00,2013-04-09 11:28:00,
2013-04-09 04:33:00,39.8,36.8,29.51,SW,219,0.0,0.0,89,0.00,,---,0.01,VWS V14.00,2013-04-09 11:33:00,
2013-04-09 04:38:00,40.5,36.7,29.51,SSE,147,3.0,3.0,86,0.00,,---,0.01,VWS V14.00,2013-04-09 11:38:00,
2013-04-09 04:43:00,40.9,36.5,29.51,SSE,148,0.0,3.0,84,0.00,,---,0.01,VWS V14.00,2013-04-09 11:43:00,
2013-04-09 04:48:00,41.3,36.2,29.52,SE,135,2.0,3.0,82,0.00,,---,0.01,VWS V14.00,2013-04-09 11:48:00,
2013-04-09 04:53:00,41.6,36.2,29.52,SE,136,0.0,7.0,81,0.00,,---,0.01,VWS V14.00,2013-04-09 11:53:00,
2013-04-09 04:58:00,41.8,36.1,29.52,SSE,155,0.0,11.0,80,0.00,,---,0.01,VWS V14.00,2013-04-09 11:58:00,
2013-04-09 05:03:00,42.0,36.0,29.52,SSE,167,0.0,1.0,79,0.00,,---,0.01,VWS V14.00,2013-04-09 12:03:00,
2013-04-09 05:08:00,42.0,36.3,29.53,SSE,158,0.0,1.0,80,0.00,,---,0.01,VWS V14.00,2013-04-09 12:08:00,
2013-04-09 05:13:00,41.9,36.2,29.53,SSE,151,2.0,4.0,80,0.00,,---,0.01,VWS V14.00,2013-04-09 12:13:00,
2013-04-09 05:19:00,41.9,35.9,29.54,SSE,165,1.0,5.0,79,0.00,,---,0.01,VWS V14.00,2013-04-09 12:19:00,
2013-04-09 05:24:00,41.9,35.5,29.54,SW,227,0.0,6.0,78,0.00,,---,0.01,VWS V14.00,2013-04-09 12:24:00,
2013-04-09 05:29:00,42.0,35.7,29.54,ESE,115,0.0,6.0,78,0.00,,---,0.01,VWS V14.00,2013-04-09 12:29:00,
2013-04-09 05:34:00,42.0,35.7,29.54,South,171,1.0,3.0,78,0.00,,---,0.01,VWS V14.00,2013-04-09 12:34:00,
2013-04-09 05:39:00,42.0,35.3,29.55,South,190,0.0,5.0,77,0.00,,---,0.01,VWS V14.00,2013-04-09 12:39:00,
2013-04-09 05:44:00,42.0,35.3,29.55,South,169,0.0,5.0,77,0.00,,---,0.01,VWS V14.00,2013-04-09 12:44:00,
2013-04-09 05:49:00,42.0,35.7,29.55,SSE,159,2.0,5.0,78,0.00,,---,0.01,VWS V14.00,2013-04-09 12:49:00,
2013-04-09 05:54:00,42.0,35.3,29.55,SSE,148,4.0,11.0,77,0.00,,---,0.01,VWS V14.00,2013-04-09 12:54:00,
2013-04-09 05:59:00,42.0,35.0,29.56,SSE,166,0.0,11.0,76,0.00,,---,0.01,VWS V14.00,2013-04-09 12:59:00,
2013-04-09 06:04:00,42.1,35.1,29.56,SSE,157,0.0,1.0,76,0.00,,---,0.01,VWS V14.00,2013-04-09 13:04:00,
2013-04-09 06:09:00,42.0,35.0,29.56,SSW,208,0.0,1.0,76,0.00,,---,0.01,VWS V14.00,2013-04-09 13:09:00,
2013-04-09 06:15:00,42.0,35.0,29.56,SSW,207,0.0,1.0,76,0.00,,---,0.01,VWS V14.00,2013-04-09 13:15:00,
2013-04-09 06:20:00,42.0,34.7,29.57,West,267,0.0,7.0,75,0.00,,---,0.01,VWS V14.00,2013-04-09 13:20:00,
2013-04-09 06:25:00,42.1,34.4,29.57,South,188,0.0,13.0,74,0.00,,---,0.01,VWS V14.00,2013-04-09 13:25:00,
2013-04-09 06:30:00,42.2,34.9,29.58,SSW,192,0.0,13.0,75,0.00,,---,0.01,VWS V14.00,2013-04-09 13:30:00,
2013-04-09 06:35:00,42.2,34.9,29.58,East,93,0.0,1.0,75,0.00,,---,0.01,VWS V14.00,2013-04-09 13:35:00,
2013-04-09 06:40:00,42.2,34.5,29.58,WNW,298,0.0,11.0,74,0.00,,---,0.01,VWS V14.00,2013-04-09 13:40:00,
2013-04-09 06:45:00,42.3,34.3,29.58,WSW,243,0.0,11.0,73,0.00,,---,0.01,VWS V14.00,2013-04-09 13:45:00,
2013-04-09 06:50:00,42.4,34.4,29.59,SSW,195,0.0,11.0,73,0.00,,---,0.01,VWS V14.00,2013-04-09 13:50:00,
2013-04-09 06:55:00,42.5,34.8,29.59,SSE,164,0.0,11.0,74,0.00,,---,0.01,VWS V14.00,2013-04-09 13:55:00,
2013-04-09 07:00:00,42.7,34.3,29.59,SSW,210,0.0,12.0,72,0.00,,---,0.01,VWS V14.00,2013-04-09 14:00:00,
2013-04-09 07:05:00,42.9,35.2,29.59,SSE,153,2.0,4.0,74,0.00,,---,0.01,VWS V14.00,2013-04-09 14:05:00,
2013-04-09 07:10:00,43.2,35.1,29.59,SSE,153,0.0,10.0,73,0.00,,---,0.01,VWS V14.00,2013-04-09 14:10:00,
2013-04-09 07:15:00,43.5,35.1,29.59,SSW,212,13.0,16.0,72,0.00,,---,0.01,VWS V14.00,2013-04-09 14:15:00,
2013-04-09 07:20:00,43.6,34.8,29.59,South,176,1.0,16.0,71,0.00,,---,0.01,VWS V14.00,2013-04-09 14:20:00,
2013-04-09 07:25:00,43.6,34.8,29.59,SE,144,1.0,16.0,71,0.00,,---,0.01,VWS V14.00,2013-04-09 14:25:00,
2013-04-09 07:30:00,43.7,34.9,29.59,SW,220,10.0,17.0,71,0.00,,---,0.01,VWS V14.00,2013-04-09 14:30:00,
2013-04-09 07:35:00,43.6,34.5,29.59,SW,219,1.0,17.0,70,0.00,,---,0.01,VWS V14.00,2013-04-09 14:35:00,
2013-04-09 07:40:00,43.6,34.5,29.59,West,261,2.0,17.0,70,0.00,,---,0.01,VWS V14.00,2013-04-09 14:40:00,
2013-04-09 07:45:00,43.4,34.3,29.59,West,263,10.0,18.0,70,0.00,,---,0.01,VWS V14.00,2013-04-09 14:45:00,
2013-04-09 07:50:00,43.5,34.4,29.59,WSW,242,0.0,18.0,70,0.00,,---,0.01,VWS V14.00,2013-04-09 14:50:00,
2013-04-09 07:55:00,43.8,34.3,29.60,SW,227,6.0,18.0,69,0.00,,---,0.01,VWS V14.00,2013-04-09 14:55:00,
2013-04-09 08:00:00,44.0,34.1,29.60,SSW,205,15.0,21.0,68,0.00,,---,0.01,VWS V14.00,2013-04-09 15:00:00,
2013-04-09 08:05:00,44.0,33.4,29.60,SW,219,0.0,15.0,66,0.00,,---,0.01,VWS V14.00,2013-04-09 15:05:00,
2013-04-09 08:10:00,44.4,33.4,29.60,SSW,203,4.0,15.0,65,0.00,,---,0.01,VWS V14.00,2013-04-09 15:10:00,
2013-04-09 08:15:00,44.8,33.4,29.60,South,173,1.0,17.0,64,0.00,,---,0.01,VWS V14.00,2013-04-09 15:15:00,
2013-04-09 08:20:00,44.7,32.5,29.61,SW,235,3.0,17.0,62,0.00,,---,0.01,VWS V14.00,2013-04-09 15:20:00,
2013-04-09 08:25:00,45.0,32.8,29.61,SW,223,6.0,17.0,62,0.00,,---,0.01,VWS V14.00,2013-04-09 15:25:00,
2013-04-09 08:30:00,45.4,32.8,29.62,SW,228,3.0,17.0,61,0.00,,---,0.01,VWS V14.00,2013-04-09 15:30:00,
2013-04-09 08:35:00,45.7,33.0,29.62,SW,224,1.0,10.0,61,0.00,,---,0.01,VWS V14.00,2013-04-09 15:35:00,
2013-04-09 08:40:00,46.0,32.5,29.62,SW,230,1.0,10.0,59,0.00,,---,0.01,VWS V14.00,2013-04-09 15:40:00,
2013-04-09 08:45:00,46.1,32.2,29.62,SSW,213,13.0,15.0,58,0.00,,---,0.01,VWS V14.00,2013-04-09 15:45:00,
2013-04-09 08:50:00,46.1,32.2,29.62,SW,236,1.0,18.0,58,0.00,,---,0.01,VWS V14.00,2013-04-09 15:50:00,
2013-04-09 08:55:00,46.4,32.0,29.63,SSW,207,11.0,18.0,57,0.00,,---,0.01,VWS V14.00,2013-04-09 15:55:00,
2013-04-09 09:00:00,46.4,32.0,29.62,WSW,238,9.0,18.0,57,0.00,,---,0.01,VWS V14.00,2013-04-09 16:00:00,
2013-04-09 09:05:00,46.4,31.6,29.63,SW,231,11.0,17.0,56,0.00,,---,0.01,VWS V14.00,2013-04-09 16:05:00,
2013-04-09 09:11:00,46.3,31.5,29.63,SW,215,10.0,17.0,56,0.00,,---,0.01,VWS V14.00,2013-04-09 16:11:00,
2013-04-09 09:16:00,46.1,31.7,29.64,WSW,242,2.0,17.0,57,0.00,,---,0.01,VWS V14.00,2013-04-09 16:16:00,
2013-04-09 09:21:00,47.3,32.0,29.64,SW,221,9.0,17.0,55,0.00,,---,0.01,VWS V14.00,2013-04-09 16:21:00,
2013-04-09 09:26:00,47.6,30.9,29.64,SW,225,5.0,17.0,52,0.00,,---,0.01,VWS V14.00,2013-04-09 16:26:00,
2013-04-09 09:31:00,47.8,31.0,29.64,WSW,238,2.0,17.0,52,0.00,,---,0.01,VWS V14.00,2013-04-09 16:31:00,
2013-04-09 09:36:00,47.7,31.0,29.64,West,262,11.0,15.0,52,0.00,,---,0.01,VWS V14.00,2013-04-09 16:36:00,
2013-04-09 09:41:00,47.4,33.8,29.65,West,277,10.0,15.0,59,0.00,,---,0.01,VWS V14.00,2013-04-09 16:41:00,
2013-04-09 09:46:00,47.6,33.1,29.65,West,281,9.0,15.0,57,0.00,,---,0.01,VWS V14.00,2013-04-09 16:46:00,
2013-04-09 09:51:00,46.7,33.6,29.65,West,281,9.0,19.0,60,0.00,,---,0.01,VWS V14.00,2013-04-09 16:51:00,
2013-04-09 09:56:00,44.6,35.1,29.65,West,276,0.0,19.0,69,0.00,,---,0.02,VWS V14.00,2013-04-09 16:56:00,
2013-04-09 10:01:00,44.1,35.3,29.65,WNW,283,0.0,1.0,71,0.00,,---,0.02,VWS V14.00,2013-04-09 17:01:00,
2013-04-09 10:06:00,44.2,35.8,29.65,West,275,9.0,12.0,72,0.00,,---,0.02,VWS V14.00,2013-04-09 17:06:00,
2013-04-09 10:12:00,44.6,35.8,29.66,WNW,290,10.0,12.0,71,0.00,,---,0.02,VWS V14.00,2013-04-09 17:12:00,
2013-04-09 10:17:00,45.0,35.5,29.66,West,273,1.0,12.0,69,0.00,,---,0.02,VWS V14.00,2013-04-09 17:17:00,
2013-04-09 10:22:00,45.6,34.9,29.66,West,266,4.0,13.0,66,0.00,,---,0.02,VWS V14.00,2013-04-09 17:22:00,
2013-04-09 10:27:00,46.0,33.7,29.67,SW,219,6.0,14.0,62,0.00,,---,0.02,VWS V14.00,2013-04-09 17:27:00,
2013-04-09 10:32:00,46.3,34.0,29.66,WSW,257,4.0,9.0,62,0.00,,---,0.02,VWS V14.00,2013-04-09 17:32:00,
2013-04-09 10:37:00,46.5,33.8,29.66,WSW,257,11.0,14.0,61,0.00,,---,0.02,VWS V14.00,2013-04-09 17:37:00,
2013-04-09 10:42:00,47.5,33.5,29.66,WNW,284,13.0,16.0,58,0.00,,---,0.02,VWS V14.00,2013-04-09 17:42:00,
2013-04-09 10:47:00,47.9,33.8,29.67,West,270,11.0,16.0,58,0.00,,---,0.02,VWS V14.00,2013-04-09 17:47:00,
2013-04-09 10:52:00,47.5,34.3,29.66,WSW,254,12.0,16.0,60,0.00,,---,0.02,VWS V14.00,2013-04-09 17:52:00,
2013-04-09 10:57:00,49.3,32.9,29.66,WNW,290,12.0,22.0,53,0.00,,---,0.02,VWS V14.00,2013-04-09 17:57:00,
2013-04-09 11:02:00,50.2,31.8,29.66,WSW,246,2.0,13.0,49,0.00,,---,0.02,VWS V14.00,2013-04-09 18:02:00,
2013-04-09 11:07:00,50.0,31.1,29.66,West,261,11.0,18.0,48,0.00,,---,0.02,VWS V14.00,2013-04-09 18:07:00,
2013-04-09 11:12:00,49.7,30.8,29.67,WSW,257,11.0,21.0,48,0.00,,---,0.02,VWS V14.00,2013-04-09 18:12:00,
2013-04-09 11:17:00,50.3,29.2,29.67,West,266,12.0,21.0,44,0.00,,---,0.02,VWS V14.00,2013-04-09 18:17:00,
2013-04-09 11:22:00,50.8,29.7,29.67,WSW,240,3.0,21.0,44,0.00,,---,0.02,VWS V14.00,2013-04-09 18:22:00,
2013-04-09 11:27:00,51.9,29.0,29.67,WNW,288,11.0,21.0,41,0.00,,---,0.02,VWS V14.00,2013-04-09 18:27:00,
2013-04-09 11:32:00,52.2,28.6,29.67,SSW,207,11.0,14.0,40,0.00,,---,0.02,VWS V14.00,2013-04-09 18:32:00,
2013-04-09 11:37:00,50.3,30.9,29.68,WNW,292,12.0,23.0,47,0.00,,---,0.02,VWS V14.00,2013-04-09 18:37:00,
2013-04-09 11:42:00,49.4,31.6,29.67,West,264,14.0,23.0,50,0.00,,---,0.02,VWS V14.00,2013-04-09 18:42:00,
2013-04-09 11:47:00,51.0,31.0,29.67,WSW,252,12.0,23.0,46,0.00,,---,0.02,VWS V14.00,2013-04-09 18:47:00,
2013-04-09 11:52:00,52.5,28.9,29.67,WSW,253,11.0,23.0,40,0.00,,---,0.02,VWS V14.00,2013-04-09 18:52:00,
2013-04-09 11:57:00,52.1,30.3,29.68,West,271,17.0,24.0,43,0.00,,---,0.03,VWS V14.00,2013-04-09 18:57:00,
2013-04-09 12:02:00,49.9,30.5,29.68,WNW,290,21.0,23.0,47,0.00,,---,0.03,VWS V14.00,2013-04-09 19:02:00,
2013-04-09 12:07:00,50.0,30.6,29.68,WNW,289,22.0,25.0,47,0.00,,---,0.03,VWS V14.00,2013-04-09 19:07:00,
2013-04-09 12:12:00,50.4,31.0,29.68,WNW,295,16.0,25.0,47,0.00,,---,0.03,VWS V14.00,2013-04-09 19:12:00,
2013-04-09 12:18:00,51.5,28.0,29.68,WNW,300,15.0,25.0,40,0.00,,---,0.03,VWS V14.00,2013-04-09 19:18:00,
2013-04-09 12:23:00,51.9,30.1,29.68,NW,304,12.0,25.0,43,0.00,,---,0.03,VWS V14.00,2013-04-09 19:23:00,
2013-04-09 12:28:00,51.7,31.6,29.68,West,267,13.0,25.0,46,0.00,,---,0.03,VWS V14.00,2013-04-09 19:28:00,
2013-04-09 12:33:00,52.6,27.7,29.68,West,270,22.0,26.0,38,0.00,,---,0.03,VWS V14.00,2013-04-09 19:33:00,
2013-04-09 12:38:00,53.1,26.2,29.68,West,274,22.0,27.0,35,0.00,,---,0.03,VWS V14.00,2013-04-09 19:38:00,
2013-04-09 12:43:00,53.6,27.3,29.68,West,272,9.0,27.0,36,0.00,,---,0.03,VWS V14.00,2013-04-09 19:43:00,
2013-04-09 12:48:00,53.4,25.8,29.68,West,271,21.0,30.0,34,0.00,,---,0.03,VWS V14.00,2013-04-09 19:48:00,
2013-04-09 12:53:00,54.2,25.7,29.68,WNW,282,25.0,30.0,33,0.00,,---,0.03,VWS V14.00,2013-04-09 19:53:00,
2013-04-09 12:58:00,52.9,23.9,29.69,West,269,20.0,31.0,32,0.00,,---,0.03,VWS V14.00,2013-04-09 19:58:00,
2013-04-09 13:03:00,52.8,24.5,29.69,WSW,242,21.0,21.0,33,0.00,,---,0.03,VWS V14.00,2013-04-09 20:03:00,
2013-04-09 13:08:00,53.9,26.2,29.69,WSW,253,13.0,23.0,34,0.00,,---,0.03,VWS V14.00,2013-04-09 20:08:00,
2013-04-09 13:13:00,54.4,26.6,29.69,West,266,14.0,25.0,34,0.00,,---,0.03,VWS V14.00,2013-04-09 20:13:00,
2013-04-09 13:18:00,54.0,26.3,29.68,West,263,19.0,25.0,34,0.00,,---,0.03,VWS V14.00,2013-04-09 20:18:00,
2013-04-09 13:23:00,54.5,27.4,29.68,West,266,12.0,27.0,35,0.00,,---,0.03,VWS V14.00,2013-04-09 20:23:00,
2013-04-09 13:29:00,54.1,26.4,29.69,WSW,252,20.0,27.0,34,0.00,,---,0.03,VWS V14.00,2013-04-09 20:29:00,
2013-04-09 13:34:00,53.5,27.2,29.69,WSW,246,10.0,25.0,36,0.00,,---,0.03,VWS V14.00,2013-04-09 20:34:00,
2013-04-09 13:39:00,53.7,28.1,29.68,West,273,21.0,27.0,37,0.00,,---,0.03,VWS V14.00,2013-04-09 20:39:00,
2013-04-09 13:44:00,54.6,27.5,29.69,WNW,284,13.0,27.0,35,0.00,,---,0.03,VWS V14.00,2013-04-09 20:44:00,
2013-04-09 13:49:00,54.9,25.6,29.69,WSW,251,14.0,27.0,32,0.00,,---,0.03,VWS V14.00,2013-04-09 20:49:00,
2013-04-09 13:54:00,54.8,23.2,29.69,West,277,14.0,27.0,29,0.00,,---,0.03,VWS V14.00,2013-04-09 20:54:00,
2013-04-09 13:59:00,55.1,23.4,29.69,WNW,287,20.0,27.0,29,0.00,,---,0.03,VWS V14.00,2013-04-09 20:59:00,
2013-04-09 14:04:00,54.9,24.1,29.69,SSW,211,14.0,25.0,30,0.00,,---,0.03,VWS V14.00,2013-04-09 21:04:00,
2013-04-09 14:09:00,55.1,25.0,29.69,WSW,254,19.0,25.0,31,0.00,,---,0.03,VWS V14.00,2013-04-09 21:09:00,
2013-04-09 14:14:00,54.9,25.6,29.69,SW,223,15.0,25.0,32,0.00,,---,0.03,VWS V14.00,2013-04-09 21:14:00,
2013-04-09 14:19:00,54.8,25.5,29.69,West,263,18.0,25.0,32,0.00,,---,0.03,VWS V14.00,2013-04-09 21:19:00,
2013-04-09 14:24:00,54.2,24.2,29.69,WSW,249,11.0,25.0,31,0.00,,---,0.03,VWS V14.00,2013-04-09 21:24:00,
2013-04-09 14:29:00,55.3,24.4,29.69,WSW,249,24.0,25.0,30,0.00,,---,0.03,VWS V14.00,2013-04-09 21:29:00,
2013-04-09 14:35:00,55.8,23.2,29.68,West,281,15.0,22.0,28,0.00,,---,0.03,VWS V14.00,2013-04-09 21:35:00,
2013-04-09 14:40:00,55.9,23.3,29.69,West,263,15.0,22.0,28,0.00,,---,0.03,VWS V14.00,2013-04-09 21:40:00,
2013-04-09 14:45:00,56.3,23.6,29.68,WNW,292,11.0,22.0,28,0.00,,---,0.03,VWS V14.00,2013-04-09 21:45:00,
2013-04-09 14:50:00,56.2,23.5,29.69,West,261,17.0,25.0,28,0.00,,---,0.03,VWS V14.00,2013-04-09 21:50:00,
2013-04-09 14:55:00,56.7,24.0,29.68,West,274,24.0,25.0,28,0.00,,---,0.03,VWS V14.00,2013-04-09 21:55:00,
2013-04-09 15:00:00,56.3,22.8,29.69,West,263,16.0,25.0,27,0.00,,---,0.03,VWS V14.00,2013-04-09 22:00:00,
2013-04-09 15:05:00,55.7,23.1,29.69,SW,228,17.0,23.0,28,0.00,,---,0.03,VWS V14.00,2013-04-09 22:05:00,
2013-04-09 15:10:00,56.0,22.5,29.69,West,281,11.0,24.0,27,0.00,,---,0.03,VWS V14.00,2013-04-09 22:10:00,
2013-04-09 15:15:00,56.0,22.5,29.69,West,277,17.0,24.0,27,0.00,,---,0.03,VWS V14.00,2013-04-09 22:15:00,
2013-04-09 15:20:00,56.0,22.5,29.70,SW,220,12.0,24.0,27,0.00,,---,0.03,VWS V14.00,2013-04-09 22:20:00,
2013-04-09 15:25:00,56.2,21.8,29.70,WSW,258,15.0,24.0,26,0.00,,---,0.03,VWS V14.00,2013-04-09 22:25:00,
2013-04-09 15:30:00,56.5,21.1,29.70,WSW,244,11.0,25.0,25,0.00,,---,0.03,VWS V14.00,2013-04-09 22:30:00,
2013-04-09 15:35:00,56.1,20.8,29.70,WSW,258,14.0,23.0,25,0.00,,---,0.03,VWS V14.00,2013-04-09 22:35:00,
2013-04-09 15:40:00,55.9,20.6,29.71,West,274,15.0,23.0,25,0.00,,---,0.03,VWS V14.00,2013-04-09 22:40:00,
2013-04-09 15:45:00,56.1,20.8,29.71,West,260,15.0,23.0,25,0.00,,---,0.03,VWS V14.00,2013-04-09 22:45:00,
2013-04-09 15:50:00,56.2,20.9,29.70,WNW,298,10.0,23.0,25,0.00,,---,0.03,VWS V14.00,2013-04-09 22:50:00,
2013-04-09 15:56:00,56.0,21.6,29.70,West,263,22.0,27.0,26,0.00,,---,0.03,VWS V14.00,2013-04-09 22:56:00,
2013-04-09 16:01:00,56.4,21.0,29.70,WNW,284,4.0,27.0,25,0.00,,---,0.03,VWS V14.00,2013-04-09 23:01:00,
2013-04-09 16:06:00,56.3,21.9,29.71,West,265,15.0,21.0,26,0.00,,---,0.03,VWS V14.00,2013-04-09 23:06:00,
2013-04-09 16:11:00,56.0,22.5,29.71,WNW,298,13.0,21.0,27,0.00,,---,0.03,VWS V14.00,2013-04-09 23:11:00,
2013-04-09 16:16:00,55.9,22.4,29.71,West,281,7.0,23.0,27,0.00,,---,0.03,VWS V14.00,2013-04-09 23:16:00,
2013-04-09 16:22:00,55.2,23.5,29.71,WNW,294,19.0,23.0,29,0.00,,---,0.03,VWS V14.00,2013-04-09 23:22:00,
2013-04-09 16:27:00,55.0,23.4,29.72,WNW,282,20.0,23.0,29,0.00,,---,0.03,VWS V14.00,2013-04-09 23:27:00,
2013-04-09 16:32:00,54.8,23.2,29.71,WNW,293,20.0,21.0,29,0.00,,---,0.03,VWS V14.00,2013-04-09 23:32:00,
2013-04-09 16:37:00,54.9,23.3,29.72,WNW,284,12.0,24.0,29,0.00,,---,0.03,VWS V14.00,2013-04-09 23:37:00,
2013-04-09 16:42:00,55.1,23.4,29.73,West,276,12.0,24.0,29,0.00,,---,0.03,VWS V14.00,2013-04-09 23:42:00,
2013-04-09 16:47:00,54.7,23.1,29.72,WNW,292,14.0,24.0,29,0.00,,---,0.03,VWS V14.00,2013-04-09 23:47:00,
2013-04-09 16:52:00,54.3,23.5,29.73,WSW,255,18.0,24.0,30,0.00,,---,0.03,VWS V14.00,2013-04-09 23:52:00,
2013-04-09 16:57:00,54.6,23.8,29.73,WNW,287,12.0,24.0,30,0.00,,---,0.03,VWS V14.00,2013-04-09 23:57:00,
2013-04-09 17:02:00,54.4,22.8,29.73,WNW,286,16.0,18.0,29,0.00,,---,0.03,VWS V14.00,2013-04-10 00:02:00,
2013-04-09 17:07:00,54.0,23.3,29.73,West,266,10.0,18.0,30,0.00,,---,0.03,VWS V14.00,2013-04-10 00:07:00,
2013-04-09 17:12:00,54.1,22.6,29.73,West,281,13.0,24.0,29,0.00,,---,0.03,VWS V14.00,2013-04-10 00:12:00,
2013-04-09 17:17:00,54.2,22.6,29.74,WNW,285,14.0,24.0,29,0.00,,---,0.03,VWS V14.00,2013-04-10 00:17:00,
2013-04-09 17:22:00,53.9,23.2,29.74,West,276,10.0,24.0,30,0.00,,---,0.03,VWS V14.00,2013-04-10 00:22:00,
2013-04-09 17:27:00,54.0,23.3,29.75,West,278,11.0,24.0,30,0.00,,---,0.03,VWS V14.00,2013-04-10 00:27:00,
2013-04-09 17:32:00,53.9,23.2,29.75,West,271,10.0,12.0,30,0.00,,---,0.03,VWS V14.00,2013-04-10 00:32:00,
2013-04-09 17:37:00,53.6,22.1,29.75,WNW,292,15.0,17.0,29,0.00,,---,0.03,VWS V14.00,2013-04-10 00:37:00,
2013-04-09 17:42:00,53.5,22.9,29.75,WNW,286,10.0,18.0,30,0.00,,---,0.03,VWS V14.00,2013-04-10 00:42:00,
2013-04-09 17:47:00,53.6,22.9,29.75,West,261,10.0,18.0,30,0.00,,---,0.03,VWS V14.00,2013-04-10 00:47:00,
2013-04-09 17:52:00,53.5,22.9,29.76,West,272,6.0,20.0,30,0.00,,---,0.03,VWS V14.00,2013-04-10 00:52:00,
2013-04-09 17:57:00,53.1,22.5,29.76,West,273,18.0,20.0,30,0.00,,---,0.03,VWS V14.00,2013-04-10 00:57:00,
2013-04-09 18:02:00,52.7,22.2,29.76,West,279,11.0,16.0,30,0.00,,---,0.03,VWS V14.00,2013-04-10 01:02:00,
2013-04-09 18:07:00,52.5,22.0,29.76,WNW,287,11.0,17.0,30,0.00,,---,0.03,VWS V14.00,2013-04-10 01:07:00,
2013-04-09 18:12:00,52.2,22.5,29.76,West,261,14.0,17.0,31,0.00,,---,0.03,VWS V14.00,2013-04-10 01:12:00,
2013-04-09 18:17:00,51.8,22.1,29.76,West,263,11.0,18.0,31,0.00,,---,0.03,VWS V14.00,2013-04-10 01:17:00,
2013-04-09 18:22:00,51.5,21.9,29.76,West,263,11.0,18.0,31,0.00,,---,0.03,VWS V14.00,2013-04-10 01:22:00,
2013-04-09 18:27:00,51.2,22.4,29.76,West,269,1.0,18.0,32,0.00,,---,0.03,VWS V14.00,2013-04-10 01:27:00,
2013-04-09 18:32:00,50.9,22.1,29.76,West,273,11.0,14.0,32,0.00,,---,0.03,VWS V14.00,2013-04-10 01:32:00,
2013-04-09 18:38:00,50.6,21.9,29.76,West,263,7.0,14.0,32,0.00,,---,0.03,VWS V14.00,2013-04-10 01:38:00,
2013-04-09 18:43:00,50.3,22.3,29.76,WNW,287,4.0,14.0,33,0.00,,---,0.03,VWS V14.00,2013-04-10 01:43:00,
2013-04-09 18:48:00,50.0,22.0,29.76,West,274,10.0,14.0,33,0.00,,---,0.03,VWS V14.00,2013-04-10 01:48:00,
2013-04-09 18:53:00,49.7,21.8,29.77,West,270,9.0,14.0,33,0.00,,---,0.03,VWS V14.00,2013-04-10 01:53:00,
2013-04-09 18:58:00,49.4,22.2,29.77,West,273,2.0,14.0,34,0.00,,---,0.03,VWS V14.00,2013-04-10 01:58:00,
2013-04-09 19:03:00,49.0,21.9,29.77,West,275,2.0,4.0,34,0.00,,---,0.03,VWS V14.00,2013-04-10 02:03:00,
2013-04-09 19:08:00,48.8,22.4,29.78,West,274,2.0,4.0,35,0.00,,---,0.03,VWS V14.00,2013-04-10 02:08:00,
2013-04-09 19:13:00,48.4,22.0,29.78,West,274,1.0,4.0,35,0.00,,---,0.03,VWS V14.00,2013-04-10 02:13:00,
2013-04-09 19:18:00,48.0,21.7,29.78,West,274,0.0,4.0,35,0.00,,---,0.03,VWS V14.00,2013-04-10 02:18:00,
2013-04-09 19:23:00,47.5,21.9,29.78,West,274,0.0,4.0,36,0.00,,---,0.03,VWS V14.00,2013-04-10 02:23:00,
2013-04-09 19:28:00,47.0,21.5,29.79,West,274,0.0,4.0,36,0.00,,---,0.03,VWS V14.00,2013-04-10 02:28:00,
2013-04-09 19:33:00,46.5,21.0,29.79,West,274,0.0,0.0,36,0.00,,---,0.03,VWS V14.00,2013-04-10 02:33:00,
2013-04-09 19:38:00,45.9,21.1,29.79,West,274,0.0,0.0,37,0.00,,---,0.03,VWS V14.00,2013-04-10 02:38:00,
2013-04-09 19:43:00,45.2,19.9,29.80,West,274,0.0,0.0,36,0.00,,---,0.03,VWS V14.00,2013-04-10 02:43:00,
2013-04-09 19:48:00,44.1,19.5,29.80,West,274,0.0,0.0,37,0.00,,---,0.03,VWS V14.00,2013-04-10 02:48:00,
2013-04-09 19:53:00,43.1,19.2,29.80,West,274,0.0,0.0,38,0.00,,---,0.03,VWS V14.00,2013-04-10 02:53:00,
2013-04-09 19:58:00,42.3,19.1,29.80,West,274,0.0,0.0,39,0.00,,---,0.03,VWS V14.00,2013-04-10 02:58:00,
2013-04-09 20:03:00,41.3,18.8,29.81,West,274,0.0,0.0,40,0.00,,---,0.03,VWS V14.00,2013-04-10 03:03:00,
2013-04-09 20:08:00,40.3,18.5,29.81,West,274,0.0,0.0,41,0.00,,---,0.03,VWS V14.00,2013-04-10 03:08:00,
2013-04-09 20:13:00,39.8,18.0,29.81,West,274,0.0,0.0,41,0.00,,---,0.03,VWS V14.00,2013-04-10 03:13:00,
2013-04-09 20:18:00,39.0,17.9,29.81,West,274,0.0,0.0,42,0.00,,---,0.03,VWS V14.00,2013-04-10 03:18:00,
2013-04-09 20:23:00,38.4,18.4,29.82,West,274,0.0,0.0,44,0.00,,---,0.03,VWS V14.00,2013-04-10 03:23:00,
2013-04-09 20:28:00,38.2,18.8,29.82,West,274,0.0,0.0,45,0.00,,---,0.03,VWS V14.00,2013-04-10 03:28:00,
2013-04-09 20:33:00,38.6,19.1,29.83,West,274,0.0,0.0,45,0.00,,---,0.03,VWS V14.00,2013-04-10 03:33:00,
2013-04-09 20:38:00,38.9,19.4,29.83,West,274,0.0,0.0,45,0.00,,---,0.03,VWS V14.00,2013-04-10 03:38:00,
2013-04-09 20:43:00,39.2,19.7,29.83,West,274,0.0,0.0,45,0.00,,---,0.03,VWS V14.00,2013-04-10 03:43:00,
2013-04-09 20:48:00,39.4,19.3,29.84,West,274,0.0,0.0,44,0.00,,---,0.03,VWS V14.00,2013-04-10 03:48:00,
2013-04-09 20:53:00,39.0,18.4,29.84,West,274,0.0,0.0,43,0.00,,---,0.03,VWS V14.00,2013-04-10 03:53:00,
2013-04-09 20:59:00,38.1,18.1,29.84,West,274,0.0,0.0,44,0.00,,---,0.03,VWS V14.00,2013-04-10 03:59:00,
2013-04-09 21:00:00,37.9,18.0,29.84,West,274,0.0,0.0,44,0.00,,---,0.03,VWS V14.00,2013-04-10 04:00:00,
2013-04-09 21:05:00,37.1,17.7,29.84,West,274,0.0,0.0,45,0.00,,---,0.03,VWS V14.00,2013-04-10 04:05:00,
2013-04-09 21:10:00,36.7,18.4,29.85,West,274,0.0,0.0,47,0.00,,---,0.03,VWS V14.00,2013-04-10 04:10:00,
2013-04-09 21:15:00,36.7,17.9,29.84,West,274,0.0,0.0,46,0.00,,---,0.03,VWS V14.00,2013-04-10 04:15:00,
2013-04-09 21:20:00,36.6,18.3,29.85,West,274,0.0,0.0,47,0.00,,---,0.03,VWS V14.00,2013-04-10 04:20:00,
2013-04-09 21:25:00,36.5,17.7,29.85,West,274,0.0,0.0,46,0.00,,---,0.03,VWS V14.00,2013-04-10 04:25:00,
2013-04-09 21:30:00,35.9,17.1,29.85,West,274,0.0,0.0,46,0.00,,---,0.03,VWS V14.00,2013-04-10 04:30:00,
2013-04-09 21:35:00,35.1,16.9,29.86,West,274,0.0,0.0,47,0.00,,---,0.03,VWS V14.00,2013-04-10 04:35:00,
2013-04-09 21:40:00,34.3,16.2,29.86,West,274,0.0,0.0,47,0.00,,---,0.03,VWS V14.00,2013-04-10 04:40:00,
2013-04-09 21:45:00,33.5,15.9,29.87,West,274,0.0,0.0,48,0.00,,---,0.03,VWS V14.00,2013-04-10 04:45:00,
2013-04-09 21:50:00,32.9,16.3,29.87,West,274,0.0,0.0,50,0.00,,---,0.03,VWS V14.00,2013-04-10 04:50:00,
2013-04-09 21:55:00,32.9,16.8,29.87,West,274,0.0,0.0,51,0.00,,---,0.03,VWS V14.00,2013-04-10 04:55:00,
2013-04-09 22:00:00,32.8,16.2,29.87,West,274,0.0,0.0,50,0.00,,---,0.03,VWS V14.00,2013-04-10 05:00:00,
2013-04-09 22:05:00,32.7,16.1,29.87,West,274,0.0,0.0,50,0.00,,---,0.03,VWS V14.00,2013-04-10 05:05:00,
2013-04-09 22:10:00,32.6,16.9,29.88,West,274,0.0,0.0,52,0.00,,---,0.03,VWS V14.00,2013-04-10 05:10:00,
2013-04-09 22:15:00,32.7,17.5,29.88,West,274,0.0,0.0,53,0.00,,---,0.03,VWS V14.00,2013-04-10 05:15:00,
2013-04-09 22:20:00,33.0,17.8,29.88,West,274,0.0,0.0,53,0.00,,---,0.03,VWS V14.00,2013-04-10 05:20:00,
2013-04-09 22:25:00,33.1,17.4,29.88,West,274,0.0,0.0,52,0.00,,---,0.03,VWS V14.00,2013-04-10 05:25:00,
2013-04-09 22:31:00,33.1,17.4,29.88,West,274,0.0,0.0,52,0.00,,---,0.03,VWS V14.00,2013-04-10 05:31:00,
2013-04-09 22:36:00,33.0,17.3,29.88,West,274,0.0,0.0,52,0.00,,---,0.03,VWS V14.00,2013-04-10 05:36:00,
2013-04-09 22:41:00,32.9,17.7,29.89,West,274,0.0,0.0,53,0.00,,---,0.03,VWS V14.00,2013-04-10 05:41:00,
2013-04-09 22:46:00,33.8,19.4,29.89,West,274,0.0,0.0,55,0.00,,---,0.03,VWS V14.00,2013-04-10 05:46:00,
2013-04-09 22:51:00,35.6,19.7,29.89,West,274,0.0,0.0,52,0.00,,---,0.03,VWS V14.00,2013-04-10 05:51:00,
2013-04-09 22:56:00,36.9,19.5,29.89,West,274,0.0,0.0,49,0.00,,---,0.03,VWS V14.00,2013-04-10 05:56:00,
2013-04-09 23:01:00,37.9,20.0,29.89,West,274,0.0,0.0,48,0.00,,---,0.03,VWS V14.00,2013-04-10 06:01:00,
2013-04-09 23:06:00,38.2,19.3,29.90,West,274,0.0,0.0,46,0.00,,---,0.03,VWS V14.00,2013-04-10 06:06:00,
2013-04-09 23:11:00,37.6,19.2,29.90,West,274,0.0,0.0,47,0.00,,---,0.03,VWS V14.00,2013-04-10 06:11:00,
2013-04-09 23:16:00,37.4,18.5,29.90,West,274,0.0,0.0,46,0.00,,---,0.03,VWS V14.00,2013-04-10 06:16:00,
2013-04-09 23:21:00,37.0,18.2,29.90,West,274,0.0,0.0,46,0.00,,---,0.03,VWS V14.00,2013-04-10 06:21:00,
2013-04-09 23:26:00,36.5,18.2,29.90,West,274,0.0,0.0,47,0.00,,---,0.03,VWS V14.00,2013-04-10 06:26:00,
2013-04-09 23:31:00,35.9,18.1,29.90,West,274,0.0,0.0,48,0.00,,---,0.03,VWS V14.00,2013-04-10 06:31:00,
2013-04-09 23:37:00,35.1,17.9,29.90,West,274,0.0,0.0,49,0.00,,---,0.03,VWS V14.00,2013-04-10 06:37:00,
2013-04-09 23:42:00,34.5,18.2,29.91,West,274,0.0,0.0,51,0.00,,---,0.03,VWS V14.00,2013-04-10 06:42:00,
2013-04-09 23:47:00,34.9,18.6,29.90,West,274,0.0,0.0,51,0.00,,---,0.03,VWS V14.00,2013-04-10 06:47:00,
2013-04-09 23:52:00,34.9,18.2,29.90,West,274,0.0,0.0,50,0.00,,---,0.03,VWS V14.00,2013-04-10 06:52:00,
2013-04-09 23:57:00,34.4,18.2,29.91,West,274,0.0,0.0,51,0.00,,---,0.03,VWS V14.00,2013-04-10 06:57:00,